Showing default

FIRESAT0, 63256

Orbit data source: Space-Track

FIRESAT0, 63256 is a payload satellite owned by Muon Space (US) in SSO that was launched on Sat, 15 Mar 2025 UTC via an FALCON 9 launch vehicle from the Air Force Western Test Range (AFWTR). Payload-class satellites include a variety of spacecraft equipped with specific instruments for various scientific and technological missions. These include communications satellites like Starlink; space stations such as the ISS; scientific satellites like the Hubble; Earth observation satellites from companies like Planet Labs, Umbra, and HawkEye 360; GPS; miniature CubeSats for education and research; and military/defense satellites.

Loading next visibility...
Identifier
63256, 2025-052AY
Orbit
SSO
Country
Flag of USUS
Related business
Manufacturer
Muon Space
Mission
Operational Commercial Imaging
Bus & Motor
MUON, Unknown motor
Mass
135 kg wet, 132 kg dry
Launch date (UTC)
2025-03-15 (1 year ago)
Launch vehicle
FALCON 9
Launch site
Air Force Western Test Range (AFWTR)
Object type
Payload
Rocket body
Debris
Shape & HBR
Box + 2 Pan, 2.5 m
Radar Cross Section
2.173 m², Large (>1 m²)

Expand to show TLE details & history
Last TLE update: 6 hours ago

TLE from 6 hours ago
0 FIRESAT0
1 63256U 25052AY  26193.13571181  .00000443  00000-0  47950-4 0  9994
2 63256  97.6935  83.7593 0001665 110.8498 249.2900 14.92976714 72316
Epoch: 2026-07-12T03:15Z
TLE epoch observation values (Epoch: 2026-07-12T03:15:25.500Z)
Latitude
-0.00002°
Longitude
104.86413°
Altitude
592.116 km
Speed
7.564 km/s
True Right ascension
05h 35m 02s
True Declination
0° 00' 00"
Sunlit
Object was in daylight at epoch
Visualization orbit readout
Latitude
Unknown
Longitude
Unknown
Altitude
Unknown
Speed
Unknown
Apparent Right ascension
Unknown
Apparent Declination
Unknown
Sunlit
N/A
Visualization observer readout
Local Sidereal Time
22:00:41
Azimuth
Unknown
Elevation
Unknown
Doppler factor
Unknown
Orbital elements
Apogee altitude
586.834 km
Perigee altitude
584.515 km
Semi-major axis
6,963.811 km
Eccentricity
0.00017
Inclination
97.6935°
RAAN
83.7593°
Arg. of periapsis
110.8498°
True anomaly
249.27215°
Mean anomaly
249.29°
Eccentric anomaly
249.28108°
Mean motion
3.73485 °/min
Orbital period
96.39 mins
BSTAR
0.00004795
Loading maneuver chart data...
Computing Atmospheric mass density...
Loading historical data...
Loading historical data...
Loading historical data...
Loading historical data...
Loading historical data...
Loading historical data...
Loading historical data...

Documentation

Showing up to 5 results
|